Probability
0 0 0 0 0 0 1 2 3 3 4 4 2 1 0 0 0 0 0 0 0 0 0 0 0 0 0 0 0 0 0 0 0 0 0 0 0 0 0 0 0 0 0
0 0 0 0 0 0 1 3 2 2 2 1 1 0 0 0 0 0 0 0 0 0 0 0 0 0 0 0 0 0 0 0 0 0 0 0 0 0 0 0 0 0 0
0 0 0 0 0 0 1 2 1 0 0 0 0 0 0 0 0 0 0 0 0 0 0 0 0 0 0 0 0 0 0 0 0 0 0 0 0 0 0 0 0 0 0
0 0 0 0 0 0 1 1 1 0 0 0 0 0 0 0 0 0 0 0 0 0 0 0 0 0 0 0 0 0 0 0 0 0 0 0 0 0 0 0 0 0 0
0 0 0 0 0 0 0 0 0 0 0 0 0 0 0 0 0 0 0 0 0 0 0 0 0 0 0 0 0 0 0 0 0 0 0 0 0 0 0 0 0 0 0
0 0 0 0 0 0 0 0 0 0 0 0 0 0 0 0 0 0 0 0 0 0 0 0 0 0 0 0 0 0 0 0 0 0 0 0 0 0 0 0 0 0 0
0 0 0 0 0 0 0 0 0 0 0 0 0 0 0 0 0 0 0 0 0 0 0 0 0 0 0 0 0 0 0 0 0 0 0 0 0 0 0 0 0 0 0
0 0 0 0 0 0 0 0 0 0 0 0 0 0 0 0 0 0 0 0 0 0 0 0 0 0 0 0 0 0 0 0 0 0 0 0 0 0 0 0 0 0 0
1 1 1 1 1 0 0 0 0 0 0 0 0 0 0 0 0 0 0 0 0 0 0 0 0 0 0 0 0 0 0 0 0 0 0 0 0 0 0 0 0 0 0
2 2 2 2 1 0 0 0 0 0 0 0 0 0 0 0 0 0 0 0 0 0 0 0 0 0 0 0 0 0 0 0 0 0 0 0 0 0 0 0 0 0 0
1 2 2 1 0 0 0 0 0 0 0 0 0 0 0 0 0 0 0 0 0 0 0 0 0 0 0 0 0 0 0 0 0 0 0 0 0 0 0 0 0 0 0
0 1 1 1 0 0 0 0 0 0 0 0 0 0 0 0 0 0 0 0 0 0 0 0 0 0 0 0 0 0 0 0 0 0 0 0 0 0 0 0 0 0 0
1 1 1 0 0 0 0 0 0 0 0 0 0 0 0 0 0 0 0 0 0 0 0 0 0 0 0 0 0 0 0 0 0 0 0 0 0 0 0 0 0 0 0
4 3 1 0 0 0 0 0 0 0 0 0 0 0 0 0 0 0 0 0 0 0 0 0 0 0 0 0 0 0 0 0 0 0 0 0 0 0 0 0 0 0 0
6 6 4 2 0 0 0 0 0 0 0 0 0 0 0 0 0 0 0 0 0 0 0 0 0 0 0 0 0 0 0 0 0 0 0 0 0 0 0 0 0 0 0
10 11 11 8 4 1 0 0 0 0 0 0 0 0 0 0 0 0 0 0 0 0 0 0 0 0 0 0 0 0 0 0 0 0 0 0 0 0 0 0 0 0 0
19 20 21 18 12 6 2 0 0 0 0 0 0 0 0 0 0 0 0 0 0 0 0 0 0 0 0 0 0 0 0 0 0 0 0 0 0 0 0 0 0 0 0
23 27 30 29 23 15 8 3 1 0 0 0 0 0 0 0 0 0 0 0 0 0 0 0 0 0 0 0 0 0 0 0 0 0 0 0 0 0 0 0 0 0 0
16 23 32 35 32 26 19 11 5 2 1 0 0 0 0 0 0 0 0 0 0 0 0 0 0 0 0 0 0 0 0 0 0 0 0 0 0 0 0 0 0 0 0
6 12 23 33 37 35 31 26 17 10 6 3 1 0 0 0 0 0 0 0 0 0 0 0 0 0 0 0 0 0 0 0 0 0 0 0 0 0 0 0 0 0 0
1 4 12 23 34 40 41 41 36 28 20 12 6 3 1 0 0 0 0 0 0 0 0 0 0 0 0 0 0 0 0 0 0 0 0 0 0 0 0 0 0 0 0
0 1 4 11 22 34 42 45 44 36 27 18 12 8 5 2 0 0 0 0 0 0 0 0 0 0 0 0 0 0 0 0 0 0 0 0 0 0 0 0 0 0 0
0 0 1 3 9 19 31 38 38 32 25 20 17 16 12 6 2 0 0 0 0 0 0 0 0 0 0 0 0 0 0 0 0 0 0 0 0 0 0 0 0 0 0
0 0 0 1 3 9 17 27 33 33 29 23 19 18 16 10 4 1 0 0 0 0 0 0 0 0 0 0 0 0 0 0 0 0 0 0 0 0 0 0 0 0 0
0 0 0 0 2 5 10 18 28 34 32 22 15 14 13 9 4 1 0 0 0 0 0 0 0 0 0 0 0 0 0 0 0 0 0 0 0 0 0 0 0 0 0
0 0 0 0 1 3 7 13 22 29 28 18 11 10 10 7 4 1 0 0 0 0 0 0 0 0 0 0 0 0 0 0 0 0 0 0 0 0 0 0 0 0 0
Wind_Speed
5 6 14 15 15 15 15 16 16 16 16 15 15 14 13 12 11 10 9 8 7 7 8 10 11 11 12 12 12 12 11 11 10 10 9 8 7 8 8 8 8 5 8
9 9 14 15 15 15 15 16 15 15 15 15 14 13 12 11 10 9 8 7 7 7 9 11 11 12 12 12 12 11 10 10 9 8 7 6 5 5 7 6 6 3 6
11 10 13 15 15 15 15 15 16 15 15 14 13 12 11 10 9 8 7 7 7 8 9 11 12 12 12 12 11 10 9 8 7 7 6 3 3 4 5 4 4 4 4
11 9 10 14 15 15 16 16 16 15 14 13 13 12 11 10 9 8 7 8 8 10 11 12 12 12 12 11 10 9 8 7 7 6 3 2 3 3 5 4 3 3 3
9 8 10 15 15 15 16 16 15 15 14 13 12 12 11 10 9 9 9 9 10 12 12 11 12 11 11 10 9 8 8 7 7 5 3 2 3 3 6 5 5 4 4
8 7 10 15 15 15 15 15 15 15 14 13 12 11 11 10 10 10 10 11 11 11 11 11 11 10 9 8 8 7 7 7 7 4 2 2 2 3 7 8 8 8 8
8 6 9 14 15 15 15 15 15 15 14 13 13 12 11 11 11 11 10 10 10 10 10 10 9 9 8 8 7 7 8 8 5 3 2 2 2 7 10 10 11 12 14
9 7 8 13 13 14 14 14 14 14 14 14 13 12 12 11 11 11 10 9 9 9 9 9 8 8 7 7 7 7 7 7 5 4 2 2 4 9 11 12 13 13 14
7 6 6 7 9 11 12 12 13 13 13 13 13 12 11 11 11 11 10 9 9 8 8 7 7 7 7 7 7 7 8 8 5 2 2 2 5 10 12 12 13 13 13
6 6 6 6 6 6 7 10 11 11 11 11 11 10 9 9 9 10 8 7 8 8 7 6 6 7 7 7 7 8 9 7 4 3 2 2 8 10 11 11 12 12 13
9 6 6 6 6 6 6 8 9 10 10 10 9 10 8 4 4 5 5 5 6 7 6 6 6 7 8 8 9 9 7 3 3 2 2 5 9 11 11 11 11 11 11
14 11 7 7 7 6 6 5 4 4 5 5 5 6 4 4 3 4 4 5 5 5 5 6 7 7 6 4 6 7 3 4 3 2 2 8 10 10 10 10 10 10 10
13 12 10 8 7 7 5 4 3 3 3 4 6 6 5 4 3 3 2 2 3 4 3 4 5 3 4 3 3 3 4 3 2 2 3 8 9 10 10 10 9 9 9
12 13 11 10 8 7 5 5 4 4 4 4 5 6 5 3 3 3 2 2 2 2 3 3 3 4 4 4 4 4 4 3 2 2 3 8 9 9 9 9 8 8 8
12 13 12 11 10 8 6 5 6 5 5 5 5 6 6 5 4 4 3 2 3 2 3 3 3 4 4 4 4 4 4 4 3 3 3 8 9 9 8 8 7 7 7
12 13 12 13 11 9 8 7 6 6 6 6 6 7 7 5 5 5 4 3 3 3 3 3 4 4 3 3 4 4 4 3 3 3 3 4 8 8 7 7 7 7 7
11 11 13 13 12 11 10 9 7 6 7 7 7 7 8 7 7 6 5 4 4 4 4 4 4 4 4 3 4 3 3 3 3 3 3 3 3 6 7 7 7 6 7
8 10 12 12 13 13 12 10 7 7 8 7 7 7 9 9 8 7 6 5 5 5 4 5 4 4 3 3 3 2 2 2 3 3 2 3 2 2 4 6 6 6 6
9 10 12 13 13 14 13 10 8 7 8 7 7 8 10 11 10 8 7 5 6 5 4 5 3 3 3 3 3 2 2 2 2 3 2 2 2 2 2 3 5 5 5
8 9 10 11 12 12 10 7 6 7 7 7 8 9 10 10 11 9 6 7 7 6 5 5 4 3 3 4 3 3 2 1 1 2 2 2 2 2 2 3 3 3 5
6 8 9 11 11 9 8 10 10 11 10 9 10 11 12 11 12 11 8 8 8 8 8 8 5 4 3 3 3 2 1 1 1 1 2 2 2 2 3 2 2 1 2
6 7 8 10 10 10 10 10 7 8 7 8 7 9 11 12 12 12 12 10 10 7 8 8 6 5 3 3 4 3 1 1 1 1 1 2 2 2 2 3 2 1 1
5 6 7 9 9 10 10 6 4 3 2 4 6 9 11 12 13 13 13 11 11 11 11 10 9 9 5 2 2 4 5 5 2 0 0 1 2 2 2 2 2 1 1
4 4 5 6 7 8 8 8 10 10 11 12 10 10 10 12 13 13 13 12 12 10 10 11 9 6 7 5 2 1 1 3 4 2 1 1 1 3 2 2 1 1 1
3 2 3 4 5 6 7 9 11 12 11 7 6 7 8 8 10 11 12 11 12 10 10 10 9 7 5 6 5 4 2 2 1 3 3 2 1 1 2 2 2 2 2
3 3 2 3 4 4 6 8 10 12 11 8 8 9 8 6 7 10 10 11 10 9 10 10 9 9 6 6 5 4 4 4 3 3 3 2 1 2 1 1 2 2 2
Wind_Direction
170 166 162 158 155 152 149 146 143 138 133 130 129 127 126 125 123 123 124 128 134 137 136 132 124 114 106 100 97 95 91 86 83 78 68 60 66 79 79 75 64 55 77
150 157 158 157 155 153 151 147 142 138 135 133 131 128 127 124 122 121 127 135 139 135 133 130 122 113 105 102 101 98 94 90 85 81 68 46 43 78 85 79 73 69 72
143 154 156 154 154 153 151 146 142 141 139 137 134 132 129 126 124 124 127 135 137 130 126 124 118 112 106 104 101 97 93 90 87 85 72 42 20 89 97 90 80 75 72
144 150 151 152 153 153 150 146 145 144 143 141 139 137 135 134 131 126 123 124 124 123 120 115 112 110 107 105 101 96 90 85 88 88 71 40 354 78 97 95 84 71 59
140 142 149 151 154 153 151 149 150 150 148 145 143 141 142 142 138 131 121 115 113 116 116 113 112 110 107 105 100 93 86 83 87 83 72 31 348 48 79 73 66 59 53
133 137 150 151 154 154 154 155 155 155 152 149 148 148 148 146 140 131 121 115 113 115 116 115 113 110 108 103 97 90 85 87 85 79 63 14 338 56 78 71 65 59 57
135 137 150 152 156 158 160 161 161 159 157 155 154 154 153 150 142 135 131 126 123 122 121 119 117 114 108 101 97 93 90 95 95 84 58 13 9 72 75 71 65 61 60
142 141 150 154 157 162 166 166 166 165 163 161 160 158 157 153 146 143 143 138 134 130 127 126 122 115 107 100 99 100 99 95 95 84 57 19 46 72 73 70 66 63 60
140 141 147 152 157 163 166 167 168 166 165 165 165 162 158 155 153 152 151 148 144 139 131 128 121 112 104 97 97 102 103 98 91 77 57 36 64 76 74 69 65 63 62
146 151 151 150 152 157 163 167 167 165 165 167 165 156 152 153 158 158 156 153 147 140 133 128 120 107 95 92 95 100 100 90 83 72 50 56 77 79 75 69 67 66 63
169 169 163 158 156 155 159 169 166 166 168 168 162 154 146 143 148 154 153 152 148 144 140 133 119 103 89 86 95 96 90 82 87 72 55 88 88 85 79 73 69 66 62
184 184 176 169 165 160 168 161 158 160 163 156 149 148 139 137 142 141 156 155 146 136 133 128 112 99 89 78 84 87 79 85 77 66 91 101 96 91 84 79 73 68 63
185 188 186 179 173 170 167 160 159 155 154 153 155 152 144 139 137 131 128 128 121 112 95 93 86 85 92 99 95 92 94 86 78 60 86 100 102 99 92 85 76 68 62
188 194 191 186 182 181 173 170 166 165 164 165 166 160 151 151 153 150 147 141 126 115 116 100 99 97 95 100 109 108 101 95 87 71 86 101 106 104 99 91 80 70 61
198 198 197 192 191 186 180 180 180 180 178 174 171 171 166 165 168 165 161 154 148 137 135 128 122 117 110 108 111 115 113 107 98 80 77 102 107 107 102 93 81 68 59
206 204 201 200 196 191 192 191 187 187 184 180 181 181 178 175 173 171 170 168 165 157 148 141 139 130 119 116 112 115 119 117 109 99 78 94 108 110 106 95 81 67 54
209 206 204 204 199 198 198 198 194 192 190 193 192 187 186 183 180 178 177 178 174 157 144 129 122 114 115 111 111 119 125 127 126 116 100 80 89 104 110 99 84 68 51
210 208 208 204 202 203 203 201 200 195 196 199 194 192 193 191 185 181 183 186 169 154 148 143 136 119 122 127 125 124 128 136 139 135 115 104 87 76 96 104 87 68 45
212 209 207 206 203 204 205 203 202 196 201 201 197 199 198 196 190 187 189 182 164 157 158 156 141 137 145 143 131 110 111 142 154 148 143 132 116 103 76 88 82 63 35
222 215 212 209 209 204 201 200 199 203 207 203 204 205 198 197 192 189 186 176 166 162 164 159 143 121 130 139 116 91 68 114 144 160 168 151 142 132 112 86 67 35 21
229 220 215 212 211 199 195 201 204 211 210 209 209 205 201 196 191 189 186 177 176 178 177 162 140 134 129 139 115 95 42 54 132 156 163 159 164 154 135 121 104 67 2
225 224 222 219 214 205 205 205 204 204 210 211 208 205 202 197 192 191 187 184 182 176 170 170 152 141 139 164 146 137 181 284 248 130 159 172 172 152 150 143 123 97 50
231 228 227 225 221 215 211 202 186 177 178 189 205 210 206 199 195 194 191 185 184 181 182 181 171 156 152 167 180 157 163 210 201 222 164 155 170 168 166 159 144 118 102
251 245 236 233 229 224 212 202 199 204 210 210 209 210 204 198 196 194 189 185 184 185 183 183 175 163 145 155 159 118 118 147 156 185 242 225 213 196 193 184 158 148 121
285 273 257 250 242 233 219 213 212 217 220 214 202 199 199 197 195 191 187 185 185 185 182 176 170 167 158 156 157 151 133 74 96 150 195 223 268 233 223 212 192 175 151
340 331 314 291 270 247 229 222 220 222 219 207 200 201 199 193 192 191 186 186 184 180 177 175 171 170 163 152 149 149 152 156 167 157 167 181 241 280 283 266 212 185 177